Powrót do katalogu

STARLINK-35319

AktywnyŁącznośćVLEO
NORAD 65743·PAYLOAD·🇺🇸 United States

Wystrzelony Sep 25, 2025 z Cape Canaveral Space Force Station

Loading…

Następne Przeloty (najbliższe 24 godziny)

TLE

ŚwieżeSource: CelesTrak SupGP

Epoka: Sep 14, 2026, 22:50 UTC

1 65743C 25216K   26257.95187500 -.00068991  00000+0 -20376-2 0  2579
2 65743  53.1570 171.7903 0001229  97.3392  83.4861 15.34437567    19

Śledź STARLINK-35319 w czasie rzeczywistym z AllMySat

Download on the App Store